[[{"header":{"parameterUnit":"m.s-1","parameterCategory":2,"la1":30.2991,"la2":30.254,"lo1":-89.0895,"lo2":-89.0444,"dx":0.0017,"dy":0.0017,"nx":28,"ny":28,"refTime":"2022-12-14T09:00:00:Z","depth":"0","parameterNumber":2,"parameterNumberName":"U-component_of_CURRENTS"},"data":[0,0,0,0,0,0,0,0,0,0,0,0,0,0,0,0,0,0,0,0,0,0,0,0,0,0,0,0,0,0,0,0,0,0,0,0,0,0,0,0,0,0,0,0,0,0,0,0,0,0,0,0,0,0,0,0,0,0,0.1944,0.1944,0,0.1953,0.1953,0.1953,0.1942,0.1942,0.1942,0.1941,0.1945,0.1945,0.1946,0,0,0,0,0,0,0,0,0,0,0,0,0,0.194,0.194,0.1944,0.1944,0.1944,0.1953,0.1953,0.1953,0.1942,0.1942,0.1942,0.1941,0.1945,0.1945,0.1946,0,0,0,0,0,0,0,0,0,0,0,0,0,0.1944,0.194,0.1944,0.194,0.194,0.1953,0.1953,0.1953,0.1942,0.1942,0.1942,0.1941,0.1945,0.1945,0.1946,0.1959,0,0,0.1948,0.1948,0,0,0,0,0,0,0,0,0.1944,0.1944,0.1941,0.1941,0.1941,0.1947,0.1954,0.1955,0.1943,0.1941,0.1941,0.1941,0.1946,0.1946,0.1948,0.1959,0.196,0.1948,0.1948,0.1948,0.1948,0,0,0,0,0,0,0,0.1944,0.1944,0.1947,0.1941,0.1941,0.1947,0.1947,0.1954,0.1945,0.1941,0.194,0.1943,0.1946,0.1948,0.1948,0.196,0.1948,0.1948,0.1948,0.1949,0.1997,0.1998,0,0,0,0,0,0,0.1944,0.1943,0.1946,0.1947,0.1942,0.1947,0.1947,0.1945,0.1945,0.1945,0.1943,0.1942,0.1947,0.1947,0.1948,0.1973,0.1948,0.1949,0.1949,0.1996,0.1998,0.1999,0,0,0,0,0,0,0.1943,0.1944,0.1946,0.1946,0.1947,0.1948,0.1945,0.1945,0.1949,0.1947,0.1947,0.1947,0.1946,0.1947,0.196,0.1973,0.1949,0.195,0.1995,0.1997,0.1998,0.2017,0,0,0,0,0,0,0.1943,0.1943,0.1945,0.1946,0.1947,0.1957,0.1946,0.1946,0.1951,0.195,0.1951,0.195,0.1946,0.1959,0.196,0.1973,0.195,0.1994,0.1996,0.1998,0.2015,0.2019,0.2022,0,0,0,0,0,0.1943,0.1945,0.1945,0.1946,0.1948,0.1958,0.1959,0.1957,0.1952,0.1957,0.1959,0.195,0.1971,0.196,0.1962,0.1975,0.1993,0.1995,0.1998,0.2014,0.2018,0.2022,0,0,0,0,0,0,0.1943,0.1944,0.1944,0.1946,0.1954,0.1956,0.1962,0.1961,0.1967,0.1966,0.1961,0.1961,0.1979,0.1977,0.1965,0.1995,0.1982,0.1984,0.1994,0.1998,0.2001,0.201,0.1951,0,0,0,0,0,0.1945,0.1947,0.1951,0.1955,0.1959,0.1962,0.1966,0.1967,0.1971,0.1972,0.1972,0.1978,0.199,0.1993,0.2002,0.2016,0.2029,0.2027,0.2031,0.2033,0.2043,0.2079,0.2087,0.2005,0.2005,0.2005,0,0,0.1946,0.1948,0.1949,0.1956,0.196,0.1969,0.1963,0.1972,0.1981,0.1973,0.1984,0.1991,0.1998,0.2015,0.2023,0.2013,0.2063,0.2036,0.2038,0.2047,0.2082,0.209,0.2097,0.2007,0.2007,0.2006,0,0,0.1949,0.1952,0.1954,0.1963,0.1974,0.1978,0.1982,0.1989,0.1992,0.2005,0.2007,0.2025,0.2031,0.2045,0.2051,0.2082,0.2083,0.2081,0.2101,0.2136,0.2143,0.215,0.2172,0.2181,0.2079,0.2079,0.2079,0,0.1951,0.1951,0.1958,0.1966,0.1973,0.1983,0.199,0.2001,0.2011,0.2023,0.2011,0.2047,0.2049,0.2084,0.2091,0.209,0.2105,0.2082,0.2141,0.2147,0.2154,0.2175,0.2184,0.208,0.208,0.208,0.208,0,0.1954,0.1958,0.1962,0.1973,0.1986,0.1994,0.2011,0.2026,0.2031,0.2044,0.2077,0.2085,0.2107,0.2111,0.2107,0.2154,0.215,0.2143,0.2129,0.2163,0.2183,0.2192,0.2082,0.2081,0.2081,0.2081,0,0,0.1939,0.1959,0.1959,0.1963,0.1989,0.1996,0.2024,0.205,0.207,0.2088,0.2116,0.2143,0.2154,0.2163,0.2167,0.2193,0.2243,0.2185,0.2186,0.2205,0.2316,0.2291,0.2298,0.2246,0.2248,0.225,0.2311,0,0.1935,0.1946,0.196,0.1972,0.1978,0.2004,0.2026,0.2058,0.2084,0.2116,0.2147,0.2175,0.2172,0.2182,0.2213,0.224,0.2269,0.2227,0.2283,0.2285,0.2257,0.2309,0.2267,0.2317,0.232,0.2321,0.2323,0,0.1927,0.1936,0.1945,0.1967,0.1972,0.1984,0.2025,0.2049,0.211,0.2134,0.2183,0.2205,0.226,0.2241,0.2319,0.2293,0.2309,0.2325,0.2328,0.2306,0.2277,0.2286,0.2333,0.2285,0.2336,0.2335,0.2334,0,0.1903,0.1921,0.1925,0.1933,0.1965,0.1975,0.1997,0.2054,0.2086,0.2153,0.219,0.2249,0.2289,0.2327,0.2368,0.2346,0.2447,0.2418,0.2413,0.2411,0.2389,0.2381,0.2396,0.2473,0.2473,0.2473,0.2473,0,0.1887,0.1888,0.1912,0.1913,0.1924,0.1956,0.1984,0.2021,0.2087,0.2135,0.2198,0.2247,0.2315,0.2376,0.2393,0.2443,0.2473,0.2435,0.2435,0.2393,0.2385,0.2352,0.231,0.2475,0.2475,0.2474,0.2474,0,0.1859,0.1873,0.1877,0.1904,0.1911,0.1921,0.1973,0.2002,0.2072,0.2139,0.2164,0.2269,0.2347,0.2408,0.2478,0.2481,0.2435,0.2523,0.2465,0.2456,0.2379,0.234,0.2127,0.2079,0.2522,0.2522,0.2522,0,0.1846,0.1845,0.1865,0.1871,0.1879,0.1903,0.1924,0.1987,0.2028,0.2146,0.2178,0.2282,0.2344,0.2453,0.2485,0.2527,0.2424,0.2504,0.2452,0.2386,0.2344,0.2112,0.2071,0.243,0.2429,0.2429,0.2428,0,0.1827,0.1832,0.1841,0.1849,0.186,0.1876,0.1912,0.1937,0.2019,0.2085,0.2166,0.2223,0.2346,0.2389,0.2463,0.2476,0.2354,0.2489,0.2448,0.23,0.2023,0.1974,0.2368,0.2422,0.2423,0.2423,0.2423,0.2424,0.182,0.1815,0.1825,0.1823,0.1835,0.1833,0.1827,0.1877,0.1923,0.1992,0.2094,0.2156,0.2301,0.2397,0.239,0.2385,0.228,0.2345,0.2313,0.209,0.2002,0.2375,0.2407,0.2407,0.2407,0.2408,0.2408,0,0.1807,0.1799,0.18,0.1787,0.177,0.179,0.1805,0.1794,0.181,0.1907,0.1968,0.21,0.2168,0.2252,0.2321,0.2248,0.2075,0.2189,0.1897,0.1882,0.2274,0.2237,0.2202,0.2202,0.2202,0.2202,0.2202,0.2202,0.1806,0.1788,0.1771,0.1721,0.1707,0.1666,0.1654,0.1649,0.1695,0.1751,0.1815,0.189,0.2051,0.2147,0.2128,0.209,0.1885,0.1737,0.1713,0.2067,0.2079,0.2091,0.2048,0.1974,0.1974,0.1233,0.1228,0.1224]},{"header":{"parameterUnit":"m.s-1","parameterCategory":2,"la1":30.2991,"la2":30.254,"lo1":-89.0895,"lo2":-89.0444,"dx":0.0017,"dy":0.0017,"nx":28,"ny":28,"refTime":"2022-12-14T09:00:00:Z","depth":"0","parameterNumber":3,"parameterNumberName":"V-component_of_CURRENTS"},"data":[0,0,0,0,0,0,0,0,0,0,0,0,0,0,0,0,0,0,0,0,0,0,0,0,0,0,0,0,0,0,0,0,0,0,0,0,0,0,0,0,0,0,0,0,0,0,0,0,0,0,0,0,0,0,0,0,0,0,0.0339,0.0339,0,0.0303,0.0303,0.0302,0.0271,0.0271,0.0271,0.0271,0.0204,0.0202,0.02,0,0,0,0,0,0,0,0,0,0,0,0,0,0.0336,0.0337,0.0339,0.0339,0.0338,0.0303,0.0303,0.0302,0.0272,0.0271,0.0271,0.0271,0.0204,0.0202,0.02,0,0,0,0,0,0,0,0,0,0,0,0,0,0.0321,0.0337,0.0339,0.032,0.0318,0.0303,0.0302,0.0302,0.0272,0.0271,0.0271,0.0271,0.0205,0.0202,0.02,0.0191,0,0,0.0193,0.0192,0,0,0,0,0,0,0,0,0.0322,0.0321,0.0323,0.0321,0.0319,0.0293,0.0277,0.0264,0.0272,0.0288,0.0271,0.0271,0.0232,0.0227,0.0219,0.0188,0.0185,0.0192,0.0191,0.019,0.0189,0,0,0,0,0,0,0,0.0323,0.0322,0.0323,0.0323,0.0321,0.0298,0.0296,0.0274,0.026,0.0286,0.0284,0.0283,0.023,0.0222,0.0217,0.0184,0.0192,0.019,0.0189,0.0188,0.0146,0.0146,0,0,0,0,0,0,0.0334,0.0324,0.0324,0.0322,0.0322,0.0299,0.0296,0.03,0.0261,0.0255,0.0283,0.0282,0.0226,0.022,0.0215,0.0216,0.019,0.0188,0.0186,0.0146,0.0146,0.0147,0,0,0,0,0,0,0.0334,0.0334,0.0326,0.0323,0.032,0.03,0.0304,0.03,0.0294,0.0259,0.0253,0.0282,0.0225,0.0218,0.0203,0.0213,0.0187,0.0184,0.0145,0.0146,0.0146,0.021,0,0,0,0,0,0,0.0334,0.0335,0.034,0.0324,0.0321,0.0325,0.0304,0.0299,0.0294,0.0292,0.0256,0.025,0.0225,0.0207,0.0201,0.0209,0.0183,0.0145,0.0146,0.0146,0.0208,0.0213,0.0217,0,0,0,0,0,0.0334,0.0347,0.0341,0.034,0.033,0.0325,0.0322,0.0304,0.0295,0.0297,0.0274,0.0251,0.0206,0.0205,0.0198,0.0206,0.0145,0.0145,0.0146,0.0206,0.0212,0.0217,0,0,0,0,0,0,0.0346,0.0344,0.0337,0.0348,0.034,0.0321,0.0321,0.031,0.0293,0.029,0.0256,0.0248,0.0237,0.0213,0.0213,0.0195,0.0171,0.0171,0.0219,0.0224,0.0229,0.0244,0.0181,0,0,0,0,0,0.0353,0.0362,0.0353,0.036,0.0359,0.034,0.0336,0.0326,0.031,0.0303,0.0279,0.0253,0.0234,0.0223,0.02,0.0192,0.0172,0.0192,0.0196,0.0201,0.0207,0.0186,0.019,0.0149,0.0149,0.0149,0,0,0.0359,0.0359,0.0363,0.0363,0.0354,0.0361,0.0337,0.0336,0.0341,0.0298,0.0295,0.0268,0.0235,0.0226,0.0219,0.0208,0.0202,0.0202,0.0206,0.021,0.0188,0.0192,0.0195,0.015,0.0149,0.0149,0,0,0.0378,0.0376,0.039,0.0389,0.0384,0.0376,0.038,0.0366,0.0359,0.0353,0.0325,0.0309,0.0276,0.0259,0.0245,0.0262,0.0228,0.0251,0.0288,0.0268,0.0272,0.0275,0.026,0.0261,0.0255,0.0255,0.0255,0,0.0384,0.0403,0.0393,0.0405,0.0409,0.0388,0.0405,0.0396,0.0379,0.038,0.036,0.0323,0.0293,0.0289,0.0293,0.0274,0.0257,0.0272,0.0276,0.0278,0.028,0.0264,0.0264,0.0258,0.0258,0.0257,0.0257,0,0.0414,0.0428,0.0436,0.0448,0.0451,0.0461,0.0453,0.0453,0.0441,0.0432,0.0424,0.0383,0.0364,0.035,0.0325,0.0325,0.0308,0.0285,0.0265,0.0288,0.0269,0.0269,0.0262,0.0261,0.026,0.026,0,0,0.043,0.0454,0.0457,0.0474,0.0477,0.0485,0.0496,0.0505,0.0523,0.0493,0.0509,0.0467,0.0446,0.0428,0.0394,0.0375,0.037,0.0339,0.0336,0.0331,0.033,0.0332,0.0331,0.0347,0.0347,0.0347,0.0314,0,0.0457,0.0498,0.0499,0.0536,0.0558,0.0547,0.0565,0.0567,0.0564,0.0572,0.0531,0.0527,0.0476,0.0468,0.0442,0.0391,0.0369,0.0381,0.0302,0.03,0.0304,0.033,0.0396,0.0374,0.0313,0.0313,0.0313,0,0.0488,0.0514,0.0557,0.0593,0.0602,0.0618,0.0648,0.0663,0.0666,0.0663,0.0648,0.0612,0.0584,0.0532,0.0459,0.0468,0.0405,0.0359,0.0356,0.0336,0.03,0.0338,0.0374,0.0338,0.0311,0.0311,0.0311,0,0.0515,0.0555,0.0595,0.0605,0.0639,0.0656,0.0675,0.0691,0.0721,0.0722,0.0741,0.069,0.0676,0.059,0.049,0.0473,0.0408,0.0371,0.0313,0.0313,0.0342,0.0344,0.0341,0.0315,0.0315,0.0316,0.0316,0,0.0548,0.0579,0.0611,0.0633,0.0688,0.0695,0.0753,0.0764,0.0795,0.0846,0.0792,0.0813,0.0688,0.0632,0.0524,0.0428,0.0432,0.033,0.0308,0.0366,0.0371,0.0318,0.0292,0.0314,0.0315,0.0315,0.0315,0,0.0574,0.0592,0.0642,0.0684,0.0703,0.0743,0.0808,0.0852,0.0874,0.0937,0.094,0.0908,0.0841,0.0715,0.0585,0.0487,0.0375,0.0339,0.042,0.0408,0.0318,0.0294,0.0269,0.0268,0.0277,0.0277,0.0276,0,0.0593,0.0621,0.0681,0.0717,0.0738,0.0799,0.0847,0.0888,0.0943,0.1001,0.1037,0.0993,0.0983,0.0804,0.0628,0.0459,0.0394,0.0389,0.0364,0.0336,0.0292,0.0279,0.0279,0.0429,0.043,0.0431,0.0432,0,0.0631,0.0648,0.0688,0.0761,0.0816,0.0888,0.096,0.1016,0.1076,0.1133,0.1197,0.1194,0.105,0.0929,0.0697,0.0564,0.041,0.0403,0.0357,0.0404,0.0407,0.0389,0.0425,0.044,0.0439,0.0439,0.0438,0.0438,0.0657,0.0691,0.0742,0.0812,0.0877,0.0966,0.103,0.1117,0.1215,0.1322,0.1322,0.138,0.1226,0.0933,0.073,0.0481,0.0461,0.0415,0.0386,0.0372,0.0386,0.0442,0.0439,0.0438,0.0438,0.0437,0.0437,0,0.0692,0.073,0.0792,0.0874,0.0943,0.0977,0.1098,0.1173,0.1293,0.1432,0.1505,0.1563,0.1326,0.1071,0.0732,0.0527,0.0447,0.0419,0.0426,0.0422,0.0465,0.0487,0.0515,0.0516,0.0516,0.0516,0.0516,0.0516,0.0714,0.077,0.0798,0.0911,0.0969,0.1073,0.1142,0.1266,0.1394,0.1618,0.1762,0.1848,0.1786,0.11,0.0684,0.0548,0.0436,0.04,0.0327,0.0364,0.0362,0.036,0.0375,0.0379,0.0379,0.0339,0.0338,0.0338]}],[{"header":{"parameterUnit":"m.s-1","parameterCategory":2,"la1":30.2991,"la2":30.254,"lo1":-89.0895,"lo2":-89.0444,"dx":0.0017,"dy":0.0017,"nx":28,"ny":28,"refTime":"2022-12-14T09:00:00:Z","depth":"2","parameterNumber":2,"parameterNumberName":"U-component_of_CURRENTS"},"data":[0,0,0,0,0,0,0,0,0,0,0,0,0,0,0,0,0,0,0,0,0,0,0,0,0,0,0,0,0,0,0,0,0,0,0,0,0,0,0,0,0,0,0,0,0,0,0,0,0,0,0,0,0,0,0,0,0,0,0.191,0.191,0,0.1921,0.1921,0.1921,0.1913,0.1913,0.1912,0.1912,0.1918,0.1919,0.1919,0,0,0,0,0,0,0,0,0,0,0,0,0,0.1907,0.1906,0.191,0.191,0.1911,0.1921,0.1921,0.1921,0.1913,0.1913,0.1912,0.1912,0.1918,0.1918,0.1919,0,0,0,0,0,0,0,0,0,0,0,0,0,0.1911,0.1906,0.191,0.1908,0.1908,0.1921,0.1921,0.1921,0.1913,0.1913,0.1912,0.1912,0.1918,0.1918,0.1919,0.1931,0,0,0.1921,0.1921,0,0,0,0,0,0,0,0,0.1911,0.1911,0.1908,0.1909,0.1909,0.1916,0.1922,0.1924,0.1913,0.191,0.1912,0.1912,0.1918,0.1918,0.192,0.1931,0.1931,0.1921,0.1921,0.1922,0.1922,0,0,0,0,0,0,0,0.191,0.191,0.1913,0.1909,0.1909,0.1915,0.1915,0.1922,0.1915,0.191,0.191,0.1913,0.1918,0.1919,0.192,0.1931,0.1921,0.1921,0.1922,0.1922,0.197,0.1971,0,0,0,0,0,0,0.191,0.191,0.1913,0.1914,0.191,0.1916,0.1916,0.1913,0.1915,0.1916,0.1913,0.1913,0.1919,0.1919,0.192,0.1946,0.1922,0.1922,0.1923,0.1969,0.197,0.1971,0,0,0,0,0,0,0.191,0.191,0.1913,0.1913,0.1914,0.1916,0.1914,0.1914,0.1918,0.1918,0.1918,0.1919,0.1918,0.1919,0.1933,0.1946,0.1922,0.1923,0.1968,0.197,0.1971,0.199,0,0,0,0,0,0,0.191,0.191,0.1912,0.1913,0.1914,0.1924,0.1914,0.1914,0.1921,0.192,0.1922,0.1922,0.1918,0.1932,0.1933,0.1946,0.1923,0.1967,0.1969,0.197,0.1988,0.1992,0.1995,0,0,0,0,0,0.1909,0.1911,0.1912,0.1912,0.1915,0.1924,0.1926,0.1925,0.1922,0.1927,0.193,0.1922,0.1944,0.1933,0.1934,0.1948,0.1966,0.1968,0.197,0.1986,0.1991,0.1995,0,0,0,0,0,0,0.191,0.1911,0.1911,0.1913,0.1921,0.1923,0.1929,0.193,0.1936,0.1936,0.1932,0.1933,0.1952,0.1949,0.1937,0.1968,0.1955,0.1957,0.1967,0.1971,0.1974,0.1983,0.1924,0,0,0,0,0,0.1912,0.1914,0.1918,0.1922,0.1926,0.1929,0.1934,0.1935,0.194,0.1942,0.1943,0.1949,0.1962,0.1965,0.1974,0.1988,0.2001,0.2,0.2003,0.2006,0.2015,0.205,0.2058,0.1978,0.1978,0.1978,0,0,0.1913,0.1915,0.1916,0.1923,0.1928,0.1936,0.1931,0.1941,0.195,0.1943,0.1955,0.1963,0.197,0.1987,0.1995,0.1985,0.2034,0.2008,0.201,0.2019,0.2053,0.2061,0.2068,0.198,0.1979,0.1979,0,0,0.1916,0.192,0.1922,0.193,0.1941,0.1946,0.1951,0.1957,0.1962,0.1976,0.1978,0.1996,0.2004,0.2016,0.2023,0.2052,0.2054,0.2053,0.2073,0.2106,0.2113,0.212,0.2141,0.2149,0.205,0.2051,0.2051,0,0.1919,0.1918,0.1926,0.1933,0.194,0.1951,0.1958,0.1969,0.198,0.1992,0.1982,0.2019,0.202,0.2054,0.2062,0.206,0.2076,0.2053,0.2111,0.2117,0.2123,0.2144,0.2153,0.2052,0.2052,0.2051,0.2051,0,0.1922,0.1926,0.193,0.1941,0.1954,0.1962,0.1978,0.1994,0.2,0.2013,0.2047,0.2055,0.2078,0.2082,0.2078,0.2124,0.212,0.2113,0.2099,0.2132,0.2152,0.2161,0.2053,0.2053,0.2053,0.2052,0,0,0.1908,0.1926,0.1927,0.1931,0.1956,0.1963,0.1991,0.2017,0.2037,0.2056,0.2084,0.2111,0.2123,0.2132,0.2136,0.2162,0.2211,0.2154,0.2156,0.2173,0.2282,0.2253,0.2259,0.2214,0.2216,0.2217,0.2276,0,0.1904,0.1914,0.1927,0.1939,0.1945,0.1971,0.1993,0.2025,0.2051,0.2083,0.2114,0.2143,0.214,0.2152,0.2182,0.2208,0.2235,0.2195,0.225,0.2251,0.222,0.2269,0.2072,0.2106,0.2285,0.2286,0.2287,0,0.1895,0.1904,0.1913,0.1934,0.1939,0.1952,0.1993,0.2017,0.2077,0.2101,0.215,0.2172,0.2226,0.2209,0.2285,0.226,0.2276,0.229,0.2293,0.2267,0.2239,0.2104,0.2115,0.2302,0.23,0.2299,0.2298,0,0.1872,0.189,0.1894,0.1902,0.1933,0.1944,0.1966,0.2023,0.2054,0.212,0.2157,0.2216,0.2256,0.2293,0.2332,0.2312,0.2408,0.2381,0.2372,0.2369,0.2214,0.2195,0.2434,0.2434,0.2434,0.2434,0.2434,0,0.1857,0.1858,0.1882,0.1883,0.1895,0.1926,0.1956,0.1992,0.2057,0.2103,0.2166,0.2213,0.2281,0.2341,0.2357,0.2402,0.2434,0.2392,0.2391,0.2214,0.2196,0.2372,0.2364,0.2436,0.2436,0.2435,0.2435,0,0.1829,0.1843,0.1848,0.1874,0.1882,0.1894,0.1946,0.1975,0.2043,0.2108,0.2134,0.2235,0.2311,0.237,0.2439,0.2439,0.2473,0.2476,0.2262,0.2236,0.2401,0.2393,0.247,0.247,0.2469,0.2469,0.2469,0,0.1816,0.1816,0.1837,0.1843,0.1852,0.1877,0.1899,0.1961,0.2,0.2115,0.2144,0.2246,0.2301,0.2404,0.2409,0.2442,0.2484,0.2287,0.2215,0.2418,0.2409,0.2402,0.2395,0.201,0.2006,0.2003,0.2,0,0.1798,0.1804,0.1812,0.1822,0.1834,0.185,0.1886,0.191,0.1991,0.205,0.2126,0.2176,0.2271,0.2224,0.2282,0.2269,0.2265,0.2224,0.2498,0.2039,0.1991,0.198,0.1987,0.1971,0.1974,0.1976,0.1978,0.1979,0.179,0.1786,0.1797,0.1797,0.181,0.1808,0.1802,0.1845,0.1884,0.1927,0.2029,0.2037,0.2078,0.2061,0.2013,0.198,0.2141,0.2048,0.2054,0.2065,0.201,0.1964,0.1929,0.1931,0.1933,0.1935,0.1937,0,0.1775,0.1772,0.1773,0.1761,0.1742,0.1767,0.1781,0.175,0.1752,0.1802,0.1837,0.1711,0.1695,0.1727,0.1637,0.1663,0.1606,0.1593,0.1496,0.1528,0.1555,0.1469,0.1247,0.1244,0.1242,0.124,0,0,0.1774,0.1755,0.1738,0.1689,0.1679,0.1631,0.1619,0.1576,0.1578,0.1524,0.1503,0.1614,0.1689,0.1442,0.1424,0.1317,0.14,0.126,0.182,0.1738,0.1762,0.1836,0.1743,0,0,0,0,0]},{"header":{"parameterUnit":"m.s-1","parameterCategory":2,"la1":30.2991,"la2":30.254,"lo1":-89.0895,"lo2":-89.0444,"dx":0.0017,"dy":0.0017,"nx":28,"ny":28,"refTime":"2022-12-14T09:00:00:Z","depth":"2","parameterNumber":3,"parameterNumberName":"V-component_of_CURRENTS"},"data":[0,0,0,0,0,0,0,0,0,0,0,0,0,0,0,0,0,0,0,0,0,0,0,0,0,0,0,0,0,0,0,0,0,0,0,0,0,0,0,0,0,0,0,0,0,0,0,0,0,0,0,0,0,0,0,0,0,0,0.0249,0.0248,0,0.0213,0.0213,0.0212,0.0185,0.0185,0.0185,0.0185,0.0119,0.0118,0.0116,0,0,0,0,0,0,0,0,0,0,0,0,0,0.0247,0.0247,0.0249,0.0248,0.0248,0.0214,0.0213,0.0212,0.0185,0.0185,0.0185,0.0185,0.012,0.0118,0.0116,0,0,0,0,0,0,0,0,0,0,0,0,0,0.0232,0.0247,0.0249,0.0232,0.023,0.0214,0.0213,0.0212,0.0185,0.0185,0.0185,0.0185,0.012,0.0118,0.0116,0.0104,0,0,0.0108,0.0107,0,0,0,0,0,0,0,0,0.0233,0.0232,0.0234,0.0233,0.0231,0.0205,0.0188,0.0175,0.0185,0.0201,0.0185,0.0185,0.0146,0.0142,0.0134,0.0101,0.0098,0.0108,0.0106,0.0105,0.0105,0,0,0,0,0,0,0,0.0234,0.0233,0.0233,0.0234,0.0232,0.021,0.0208,0.0185,0.0173,0.0199,0.0198,0.0196,0.0145,0.0136,0.0132,0.0097,0.0108,0.0106,0.0104,0.0103,0.006,0.006,0,0,0,0,0,0,0.0244,0.0234,0.0234,0.0232,0.0233,0.0211,0.0208,0.0212,0.0174,0.0169,0.0196,0.0195,0.014,0.0135,0.0129,0.0131,0.0105,0.0103,0.0102,0.0059,0.006,0.006,0,0,0,0,0,0,0.0244,0.0245,0.0236,0.0233,0.0231,0.0211,0.0216,0.0212,0.0207,0.0172,0.0166,0.0197,0.014,0.0133,0.0118,0.0128,0.0102,0.01,0.0059,0.0059,0.006,0.0123,0,0,0,0,0,0,0.0245,0.0245,0.025,0.0234,0.0231,0.0234,0.0216,0.0211,0.0207,0.0205,0.0171,0.0164,0.0139,0.0122,0.0115,0.0124,0.0098,0.0059,0.0059,0.006,0.012,0.0125,0.013,0,0,0,0,0,0.0245,0.0256,0.0251,0.0251,0.024,0.0235,0.0232,0.0215,0.0208,0.021,0.0188,0.0165,0.0121,0.012,0.0112,0.012,0.0058,0.0059,0.006,0.0118,0.0124,0.013,0,0,0,0,0,0,0.0257,0.0254,0.0248,0.0258,0.025,0.0231,0.0231,0.0221,0.0205,0.0203,0.017,0.0162,0.0151,0.0127,0.0127,0.0109,0.0085,0.0085,0.0133,0.0138,0.0143,0.0157,0.0096,0,0,0,0,0,0.0263,0.0271,0.0262,0.0269,0.0268,0.0251,0.0246,0.0237,0.0222,0.0215,0.0192,0.0167,0.0147,0.0137,0.0114,0.0105,0.0084,0.0104,0.0109,0.0113,0.0119,0.0097,0.0101,0.0062,0.0062,0.0062,0,0,0.0269,0.0268,0.0272,0.0272,0.0263,0.027,0.0247,0.0247,0.0252,0.021,0.0208,0.0182,0.0148,0.0139,0.0132,0.0121,0.0114,0.0114,0.0118,0.0122,0.0098,0.0102,0.0105,0.0063,0.0063,0.0063,0,0,0.0287,0.0285,0.0299,0.0297,0.0293,0.0285,0.0289,0.0276,0.027,0.0265,0.0237,0.0221,0.0189,0.0171,0.0157,0.0173,0.0139,0.0162,0.0199,0.0177,0.0181,0.0183,0.0168,0.0168,0.0166,0.0166,0.0166,0,0.0293,0.0312,0.0301,0.0313,0.0317,0.0297,0.0314,0.0305,0.0289,0.029,0.0272,0.0235,0.0205,0.0199,0.0203,0.0185,0.0167,0.0182,0.0185,0.0187,0.0188,0.0172,0.0171,0.0169,0.0169,0.0168,0.0168,0,0.0321,0.0335,0.0343,0.0355,0.0357,0.0367,0.0359,0.0359,0.0349,0.0341,0.0332,0.0292,0.0273,0.0259,0.0235,0.0234,0.0216,0.0194,0.0174,0.0196,0.0177,0.0176,0.0173,0.0172,0.0171,0.0171,0,0,0.0339,0.0361,0.0364,0.038,0.0383,0.039,0.04,0.0408,0.0425,0.0397,0.0411,0.0371,0.0351,0.0333,0.0301,0.028,0.0275,0.0246,0.0243,0.0238,0.0232,0.0233,0.0232,0.0252,0.0252,0.0252,0.0217,0,0.0365,0.0403,0.0404,0.0439,0.046,0.0449,0.0466,0.0468,0.0464,0.0472,0.0431,0.0427,0.038,0.0373,0.0346,0.0295,0.0273,0.0286,0.0206,0.0204,0.0207,0.0231,0.0214,0.0184,0.0216,0.0216,0.0215,0,0.0395,0.0419,0.046,0.0494,0.0502,0.0518,0.0546,0.056,0.0561,0.0558,0.0543,0.0509,0.048,0.0433,0.0359,0.0369,0.0308,0.0261,0.0258,0.0237,0.0202,0.0164,0.018,0.0213,0.0213,0.0213,0.0213,0,0.0421,0.0459,0.0498,0.0507,0.0538,0.0555,0.0573,0.0587,0.0615,0.0616,0.0633,0.0583,0.057,0.0485,0.0388,0.0373,0.0304,0.0269,0.0211,0.021,0.0169,0.0166,0.0213,0.0213,0.0213,0.0213,0.0213,0,0.0454,0.0484,0.0515,0.0535,0.0588,0.0594,0.065,0.066,0.0688,0.0736,0.0684,0.0702,0.0582,0.0524,0.0419,0.0323,0.0327,0.0226,0.0205,0.0192,0.019,0.019,0.0188,0.0212,0.0212,0.0212,0.0212,0,0.0479,0.0497,0.0545,0.0585,0.0603,0.0642,0.0705,0.0746,0.0767,0.0826,0.0829,0.0795,0.0728,0.0604,0.0475,0.0379,0.0273,0.0231,0.023,0.0209,0.0183,0.0185,0.0168,0.0167,0.0167,0.0167,0.0167,0,0.0497,0.0525,0.0583,0.0618,0.0639,0.0698,0.0745,0.0783,0.0834,0.0887,0.0919,0.0875,0.0859,0.0679,0.0493,0.0321,0.0291,0.0192,0.0158,0.02,0.018,0.0182,0.0183,0.0126,0.0125,0.0125,0.0124,0,0.0533,0.055,0.0588,0.0662,0.0715,0.0784,0.0853,0.0906,0.0962,0.1011,0.1068,0.1059,0.0901,0.0724,0.049,0.036,0.0219,0.0181,0.0221,0.0148,0.016,0.014,0.0143,0.0121,0.0122,0.0122,0.0122,0.0122,0.0558,0.0591,0.0641,0.071,0.0775,0.086,0.0923,0.0995,0.1083,0.1152,0.1158,0.1139,0.0948,0.064,0.0428,0.02,0.0225,0.0122,0.0123,0.0125,0.0134,0.0146,0.0107,0.0107,0.0107,0.0107,0.0108,0,0.0588,0.063,0.069,0.0771,0.0835,0.0875,0.0988,0.1033,0.1132,0.1198,0.1238,0.1026,0.085,0.0629,0.0298,0.0114,0.0076,0.0036,0.0027,0.0032,0.0037,0.0041,-0.0011,-0.0012,-0.0013,-0.0014,0,0,0.0609,0.0662,0.0689,0.0798,0.0862,0.0952,0.1019,0.1078,0.1135,0.1168,0.1163,0.116,0.0914,0.0642,0.0382,0.0191,0.0149,0.0138,0.0253,0.0279,0.0285,0.0106,0.0122,0,0,0,0,0]}],[{"header":{"parameterUnit":"m.s-1","parameterCategory":2,"la1":30.2991,"la2":30.254,"lo1":-89.0895,"lo2":-89.0444,"dx":0.0017,"dy":0.0017,"nx":28,"ny":28,"refTime":"2022-12-14T09:00:00:Z","depth":"4","parameterNumber":2,"parameterNumberName":"U-component_of_CURRENTS"},"data":[0,0,0,0,0,0,0,0,0,0,0,0,0,0,0,0,0,0,0,0,0,0,0,0,0,0,0,0,0,0,0,0,0,0,0,0,0,0,0,0,0,0,0,0,0,0,0,0,0,0,0,0,0,0,0,0,0,0,0.1126,0.1127,0,0.1184,0.1184,0.1185,0.1229,0.1229,0.123,0.123,0.1298,0.1299,0.13,0,0,0,0,0,0,0,0,0,0,0,0,0,0.1052,0.1053,0.1126,0.1127,0.1127,0.1184,0.1184,0.1185,0.1229,0.1229,0.123,0.1231,0.1297,0.1299,0.13,0,0,0,0,0,0,0,0,0,0,0,0,0,0.1093,0.1053,0.1126,0.1157,0.1161,0.1183,0.1184,0.1185,0.1229,0.1229,0.123,0.1231,0.1297,0.1299,0.13,0.1296,0,0,0.1306,0.1307,0,0,0,0,0,0,0,0,0.109,0.1095,0.1152,0.1155,0.1159,0.1201,0.1183,0.1223,0.1228,0.1201,0.123,0.1231,0.1267,0.1271,0.1278,0.1299,0.1302,0.1307,0.1308,0.1309,0.1309,0,0,0,0,0,0,0,0.1087,0.1093,0.1147,0.1153,0.1157,0.1168,0.1175,0.1191,0.1228,0.1204,0.1207,0.1216,0.1269,0.1276,0.128,0.1303,0.1306,0.1308,0.1309,0.131,0.1406,0.1408,0,0,0,0,0,0,0.1083,0.109,0.1145,0.1149,0.1128,0.1169,0.1176,0.1186,0.1227,0.1235,0.1215,0.1218,0.1272,0.1277,0.1282,0.1351,0.1309,0.131,0.1311,0.1405,0.1407,0.1408,0,0,0,0,0,0,0.1081,0.1087,0.1143,0.1122,0.113,0.117,0.118,0.1186,0.1221,0.1236,0.1244,0.1246,0.1273,0.128,0.1322,0.1351,0.1311,0.1313,0.1403,0.1406,0.1408,0.1442,0,0,0,0,0,0,0.1078,0.1086,0.1102,0.1122,0.1131,0.1172,0.1179,0.1187,0.1224,0.1228,0.1264,0.127,0.1274,0.132,0.1324,0.1353,0.1314,0.1402,0.1404,0.1407,0.1439,0.1445,0.145,0,0,0,0,0,0.1076,0.1089,0.1103,0.111,0.1149,0.1173,0.1179,0.1208,0.1225,0.1242,0.1271,0.127,0.134,0.1322,0.1327,0.1357,0.14,0.1404,0.1407,0.1436,0.1443,0.1449,0,0,0,0,0,0,0.1067,0.1095,0.1111,0.1134,0.1161,0.1182,0.1204,0.1222,0.1258,0.1272,0.1286,0.1293,0.1343,0.1346,0.1326,0.1394,0.1371,0.1375,0.1392,0.1399,0.1404,0.1406,0.1316,0,0,0,0,0,0.1072,0.1091,0.1118,0.114,0.1156,0.1185,0.1204,0.1225,0.1253,0.1271,0.1297,0.1327,0.1355,0.1374,0.1397,0.1431,0.1434,0.1455,0.146,0.1465,0.1471,0.1502,0.151,0.1419,0.1419,0.1419,0,0,0.1074,0.1094,0.1106,0.1141,0.1165,0.119,0.1199,0.1236,0.1263,0.1272,0.1325,0.1349,0.1369,0.1411,0.1433,0.142,0.1493,0.1469,0.1472,0.1476,0.1506,0.1515,0.1522,0.1421,0.142,0.142,0,0,0.108,0.1109,0.1126,0.1151,0.1193,0.121,0.1226,0.1265,0.1293,0.1338,0.1356,0.1399,0.1439,0.146,0.1474,0.1523,0.1522,0.1536,0.1564,0.1594,0.1602,0.1609,0.1621,0.1628,0.1537,0.1537,0.1537,0,0.1087,0.1109,0.1135,0.1159,0.1185,0.1222,0.1247,0.1277,0.1327,0.1354,0.1363,0.1443,0.1461,0.151,0.1532,0.1536,0.1548,0.1535,0.1601,0.1607,0.1614,0.1624,0.1632,0.1539,0.1539,0.1539,0.1539,0,0.1096,0.1127,0.1142,0.1184,0.1214,0.1244,0.1285,0.1326,0.1365,0.1395,0.1463,0.1493,0.154,0.1555,0.156,0.1619,0.1611,0.1604,0.158,0.1625,0.1633,0.1641,0.1542,0.1541,0.1541,0.154,0,0,0.108,0.1137,0.1146,0.1171,0.1232,0.1253,0.1308,0.1362,0.1402,0.1458,0.1509,0.1567,0.1595,0.1613,0.1631,0.1658,0.1711,0.1656,0.1656,0.1661,0.1773,0.1656,0.1653,0.172,0.1721,0.1722,0.1759,0,0.1086,0.1126,0.1157,0.1205,0.1231,0.1285,0.1329,0.1386,0.1438,0.1497,0.1546,0.1603,0.1613,0.1646,0.1678,0.1708,0.1734,0.1702,0.1735,0.1736,0.1621,0.1658,0.1728,0.1765,0.1767,0.1768,0.1769,0,0.1084,0.1114,0.1158,0.1218,0.1236,0.1274,0.1355,0.1399,0.1486,0.1529,0.1598,0.1639,0.1708,0.1701,0.1776,0.1758,0.1774,0.1786,0.1788,0.1671,0.1632,0.1714,0.1782,0.1781,0.178,0.1779,0.1778,0,0.1051,0.1113,0.1148,0.1171,0.1245,0.1285,0.1332,0.1417,0.1466,0.1561,0.1608,0.1685,0.174,0.1776,0.1818,0.1807,0.1882,0.1862,0.1768,0.176,0.1839,0.1831,0.1909,0.1909,0.1908,0.1908,0.1908,0,0.1034,0.1066,0.1141,0.1161,0.1212,0.1273,0.134,0.1398,0.149,0.1543,0.1629,0.1679,0.1766,0.182,0.1835,0.1824,0.1899,0.1778,0.1765,0.1852,0.1845,0.1844,0.1836,0.191,0.1909,0.1909,0.1909,0,0.0995,0.1042,0.1086,0.1169,0.12,0.124,0.1344,0.1383,0.1482,0.1556,0.1593,0.1703,0.1763,0.1824,0.1885,0.1838,0.1841,0.1818,0.1909,0.19,0.1692,0.1686,0.1704,0.1701,0.1697,0.1695,0.1692,0,0.0975,0.0997,0.1086,0.1113,0.1157,0.1228,0.127,0.1372,0.1412,0.1552,0.1571,0.1678,0.1735,0.1727,0.1795,0.1806,0.1789,0.1772,0.1727,0.1687,0.1673,0.1672,0.167,0.1687,0.1687,0.1686,0.1685,0,0.0939,0.0982,0.1017,0.1076,0.1125,0.1168,0.1237,0.1259,0.1367,0.1473,0.1517,0.1555,0.1616,0.1654,0.168,0.1686,0.1769,0.1738,0.1744,0.1701,0.1667,0.1656,0.1658,0.1674,0.1675,0.1676,0.1677,0,0.0917,0.0929,0.098,0.1021,0.1075,0.1084,0.1132,0.1175,0.123,0.1375,0.1387,0.1495,0.1598,0.1592,0.1615,0.1612,0.1583,0.1524,0.154,0.1553,0.1486,0.1419,0.1342,0,0,0,0,0,0.0889,0.0887,0.0918,0.0946,0.0994,0.1025,0.1094,0.1141,0.1246,0.124,0.1311,0.1358,0.1399,0.1457,0.1423,0.1542,0.1585,0.1494,0.1524,0.1612,0.1625,0.156,0,0,0,0,0,0,0.0866,0.0891,0.089,0.0872,0.0881,0.0918,0.0957,0.1027,0.1029,0.1148,0.118,0.1274,0.1336,0.141,0.14,0.1415,0.1403,0.1565,0.1561,0.1605,0.1617,0.1627,0.1564,0,0,0,0,0]},{"header":{"parameterUnit":"m.s-1","parameterCategory":2,"la1":30.2991,"la2":30.254,"lo1":-89.0895,"lo2":-89.0444,"dx":0.0017,"dy":0.0017,"nx":28,"ny":28,"refTime":"2022-12-14T09:00:00:Z","depth":"4","parameterNumber":3,"parameterNumberName":"V-component_of_CURRENTS"},"data":[0,0,0,0,0,0,0,0,0,0,0,0,0,0,0,0,0,0,0,0,0,0,0,0,0,0,0,0,0,0,0,0,0,0,0,0,0,0,0,0,0,0,0,0,0,0,0,0,0,0,0,0,0,0,0,0,0,0,-0.0,-0.0,0,-0.0015,-0.0015,-0.0015,-0.003,-0.003,-0.003,-0.0031,-0.0077,-0.0078,-0.008,0,0,0,0,0,0,0,0,0,0,0,0,0,-0.0013,-0.0013,-0.0,-0.0,-0.0001,-0.0015,-0.0015,-0.0015,-0.003,-0.003,-0.003,-0.0031,-0.0077,-0.0078,-0.008,0,0,0,0,0,0,0,0,0,0,0,0,0,-0.0017,-0.0013,-0.0,-0.0009,-0.001,-0.0015,-0.0015,-0.0015,-0.003,-0.003,-0.0031,-0.0031,-0.0077,-0.0078,-0.008,-0.0087,0,0,-0.0085,-0.0086,0,0,0,0,0,0,0,0,-0.0016,-0.0016,-0.0008,-0.0008,-0.0009,-0.002,-0.0037,-0.0041,-0.003,-0.0023,-0.0031,-0.0031,-0.006,-0.0063,-0.0067,-0.0089,-0.0091,-0.0085,-0.0086,-0.0087,-0.0088,0,0,0,0,0,0,0,-0.0016,-0.0016,-0.0007,-0.0008,-0.0009,-0.0021,-0.0022,-0.0038,-0.0042,-0.0024,-0.0025,-0.0025,-0.0061,-0.0065,-0.0068,-0.0092,-0.0085,-0.0087,-0.0088,-0.0088,-0.0115,-0.0114,0,0,0,0,0,0,-0.001,-0.0015,-0.0007,-0.0007,-0.0012,-0.0021,-0.0022,-0.0017,-0.0041,-0.0045,-0.0025,-0.0026,-0.0062,-0.0066,-0.007,-0.0065,-0.0087,-0.0089,-0.009,-0.0115,-0.0115,-0.0114,0,0,0,0,0,0,-0.0011,-0.0009,-0.0006,-0.0011,-0.0012,-0.002,-0.0015,-0.0017,-0.0018,-0.0041,-0.0045,-0.0023,-0.0062,-0.0067,-0.0076,-0.0067,-0.0089,-0.0091,-0.0115,-0.0115,-0.0114,-0.0065,0,0,0,0,0,0,-0.0011,-0.0009,-0.0006,-0.0011,-0.0011,-0.0004,-0.0015,-0.0018,-0.0018,-0.0019,-0.0042,-0.0046,-0.0063,-0.0073,-0.0078,-0.007,-0.0092,-0.0116,-0.0115,-0.0115,-0.0067,-0.0062,-0.0059,0,0,0,0,0,-0.0011,-0.0004,-0.0006,-0.0005,-0.0006,-0.0003,-0.0005,-0.0013,-0.0017,-0.0015,-0.0028,-0.0045,-0.0073,-0.0074,-0.008,-0.0072,-0.0116,-0.0115,-0.0115,-0.0068,-0.0063,-0.0059,0,0,0,0,0,0,-0.001,-0.0005,-0.0007,0.0001,0.0001,-0.0005,-0.0005,-0.0009,-0.0017,-0.0019,-0.0041,-0.0046,-0.0051,-0.0069,-0.007,-0.0078,-0.0098,-0.0098,-0.0061,-0.0056,-0.0052,-0.0045,-0.0094,0,0,0,0,0,-0.0007,-0.0,0.0001,0.0006,0.0008,0.0003,0.0002,-0.0001,-0.0007,-0.0011,-0.0025,-0.0041,-0.0053,-0.0059,-0.0074,-0.0078,-0.0099,-0.0078,-0.0074,-0.007,-0.0068,-0.009,-0.0088,-0.0112,-0.0112,-0.0112,0,0,-0.0007,-0.0003,0.0,0.0007,0.0005,0.0015,0.0002,0.0005,0.0013,-0.0016,-0.0012,-0.0029,-0.0051,-0.0054,-0.0058,-0.0067,-0.0074,-0.0069,-0.0066,-0.0066,-0.0089,-0.0087,-0.0085,-0.0111,-0.0111,-0.0111,0,0,0.0002,0.0004,0.0014,0.0019,0.0023,0.0023,0.0027,0.0027,0.0025,0.0027,0.001,0.0001,-0.0018,-0.0029,-0.0038,-0.0023,-0.0053,-0.0029,-0.0002,-0.0023,-0.0021,-0.002,-0.0039,-0.004,-0.0026,-0.0026,-0.0026,0,0.0003,0.0019,0.0017,0.003,0.0038,0.0031,0.0046,0.0046,0.0043,0.0044,0.0034,0.0013,-0.0006,-0.0008,-0.0001,-0.0013,-0.0031,-0.0016,-0.0017,-0.0017,-0.0016,-0.0036,-0.0038,-0.0023,-0.0024,-0.0024,-0.0024,0,0.0022,0.0036,0.0043,0.006,0.0066,0.0078,0.0082,0.0086,0.0084,0.0082,0.0079,0.0056,0.0045,0.0037,0.0023,0.0021,0.0006,-0.001,-0.0027,-0.0011,-0.0033,-0.0035,-0.002,-0.0021,-0.0021,-0.0022,0,0,0.0027,0.0052,0.0056,0.007,0.0085,0.0094,0.0109,0.0121,0.0135,0.0123,0.0133,0.0113,0.0101,0.009,0.007,0.0052,0.0042,0.0027,0.0025,0.0012,-0.0003,-0.0004,-0.0007,0.0026,0.0026,0.0025,-0.0018,0,0.0045,0.0076,0.0085,0.0115,0.0133,0.0136,0.0154,0.0162,0.0165,0.0172,0.0147,0.0149,0.0122,0.012,0.0098,0.0058,0.0037,0.0055,-0.0021,-0.0023,-0.0023,-0.0009,0.0025,-0.002,-0.0021,-0.0022,-0.0022,0,0.0066,0.0085,0.0118,0.0149,0.0158,0.0176,0.0203,0.0219,0.0226,0.0228,0.0221,0.0202,0.0184,0.0154,0.0093,0.0106,0.0057,0.0019,0.0016,-0.0004,-0.0029,-0.0043,-0.0027,-0.0026,-0.0026,-0.0026,-0.0025,0,0.0073,0.0109,0.0138,0.0149,0.0182,0.0198,0.0218,0.0237,0.026,0.0267,0.0281,0.0248,0.0242,0.0175,0.0105,0.0098,0.0029,0.0008,-0.0042,-0.0043,-0.0052,-0.0053,-0.0044,-0.0044,-0.0043,-0.0043,-0.0043,0,0.0091,0.0113,0.0146,0.0161,0.0202,0.0218,0.0261,0.0277,0.0304,0.0339,0.0315,0.0329,0.0247,0.02,0.012,0.0039,0.004,-0.0034,-0.0053,-0.003,-0.0028,-0.0054,-0.0054,-0.0045,-0.0045,-0.0044,-0.0044,0,0.0093,0.0114,0.0149,0.0189,0.0208,0.0237,0.0295,0.0325,0.0353,0.0396,0.0403,0.0391,0.0338,0.0247,0.0143,0.0072,-0.0016,-0.005,-0.001,-0.0027,-0.0081,-0.0078,-0.0109,-0.0109,-0.011,-0.011,-0.011,0,0.0097,0.0116,0.0168,0.0193,0.0215,0.0263,0.0299,0.0344,0.038,0.0435,0.0453,0.043,0.0404,0.0271,0.0162,0.0012,-0.0016,-0.0068,-0.0083,-0.0072,-0.0087,-0.0084,-0.0081,-0.0111,-0.0111,-0.0111,-0.0111,0,0.0102,0.0121,0.0149,0.0203,0.0246,0.0298,0.0353,0.0385,0.0443,0.047,0.0509,0.0456,0.0398,0.0286,0.0173,0.006,-0.0037,-0.0071,-0.0072,-0.0087,-0.0074,-0.0088,-0.0085,-0.0112,-0.0112,-0.0112,-0.0112,0,0.0105,0.0123,0.0162,0.0211,0.0265,0.032,0.035,0.0405,0.0452,0.0515,0.0525,0.0479,0.0457,0.031,0.0204,0.0098,0.006,0.0009,0.0004,0.0003,0.0044,0.0077,0.0075,0,0,0,0,0,0.0107,0.0128,0.0168,0.0225,0.0278,0.0314,0.0383,0.0411,0.0469,0.0504,0.0522,0.0474,0.0357,0.031,0.0204,0.0164,0.0015,0.0032,-0.0053,-0.0118,-0.0116,-0.0089,0,0,0,0,0,0,0.0107,0.0141,0.0164,0.0229,0.0268,0.0333,0.0377,0.0416,0.0439,0.0486,0.043,0.0432,0.0312,0.042,0.0199,0.0169,0.0095,-0.0015,-0.0018,-0.0118,-0.0117,-0.0116,-0.0087,0,0,0,0,0]}]]